This demonstration page uses our WeatherBlox Daily Observations layout. Learn more.

Left ArrowRight Arrow

Hourly Observations for August 27, 2020

Temp ( °F °C ) Dew Point ( °F °C ) Humidity (%) Winds ( mph kmh ) Pressure ( in mb ) Visibility ( mi km ) Precip ( " mm )
12:53 am 00:53 Clear 75 23.9 72 22.2 90 90 N N/A 29.98 1015 10 16.0934 N/A
1:53 am 01:53 Clear 76 24.4 72 22.2 88 88 VRB 3 6 29.97 1015 10 16.0934 N/A
2:53 am 02:53 Clear 75 23.9 72 22.2 90 90 N N/A 29.96 1015 10 16.0934 N/A
3:53 am 03:53 Clear 73 22.8 71 21.7 94 94 N N/A 29.98 1015 10 16.0934 N/A
4:53 am 04:53 Clear 71 21.7 70 21.1 96 96 N N/A 29.97 1015 10 16.0934 N/A
5:53 am 05:53 Clear 70 21.1 69 20.6 97 97 N N/A 29.97 1015 9 14.48406 N/A
6:53 am 06:53 Clear 71 21.7 70 21.1 96 96 N N/A 29.97 1015 10 16.0934 N/A
7:53 am 07:53 Mostly Sunny 74 23.3 71 21.7 91 91 SSW 3 6 29.98 1015 10 16.0934 N/A
8:53 am 08:53 Mostly Cloudy 76 24.4 72 22.2 88 88 VRB 3 6 29.99 1016 10 16.0934 N/A
9:53 am 09:53 Sunny 80 26.7 73 22.8 79 79 VRB 6 9 29.99 1016 10 16.0934 N/A
10:53 am 10:53 Cloudy 79 26.1 73 22.8 82 82 WSW 8 13 30.01 1016 10 16.0934 N/A
11:53 am 11:53 Cloudy 81 27.2 74 23.3 79 79 W 7 11 30 1016 10 16.0934 N/A
12:53 pm 12:53 Mostly Cloudy 84 28.9 75 23.9 74 74 VRB 5 7 29.99 1016 10 16.0934 N/A
1:53 pm 13:53 Mostly Sunny 85 29.4 74 23.3 70 70 W 9 15 29.98 1015 10 16.0934 N/A
2:53 pm 14:53 Partly Cloudy 84 28.9 73 22.8 70 70 WSW 14 22 29.98 1015 10 16.0934 N/A
3:53 pm 15:53 Sunny 82 27.8 72 22.2 72 72 VRB 3 6 29.96 1015 10 16.0934 N/A
4:53 pm 16:53 Sunny 82 27.8 73 22.8 74 74 VRB 5 7 29.96 1014 10 16.0934 N/A
5:53 pm 17:53 Sunny 81 27.2 73 22.8 77 77 VRB 5 7 29.95 1014 10 16.0934 N/A
6:53 pm 18:53 Sunny 81 27.2 73 22.8 77 77 WSW 5 7 29.96 1014 10 16.0934 N/A
7:53 pm 19:53 Sunny 79 26.1 74 23.3 85 85 N N/A 29.94 1014 10 16.0934 N/A
8:53 pm 20:53 Clear 77 25 74 23.3 90 90 N N/A 29.93 1014 10 16.0934 N/A
9:53 pm 21:53 Clear 76 24.4 74 23.3 94 94 N N/A 29.94 1014 10 16.0934 N/A
10:53 pm 22:53 Clear 76 24.4 74 23.3 94 94 N N/A 29.95 1014 10 16.0934 N/A
11:53 pm 23:53 Clear 76 24.4 74 23.3 94 94 N N/A 29.95 1014 10 16.0934 N/A

Powered by AerisWeather